Regional Weather Roundup
Issued by NWS

Home | Current Version | Previous Version | Text Only | Print | Product List | Glossary Off
Versions: 1 2 3 4 5 6 7 8 9 10 11 12 13 14 15 16 17 18 19 20 21 22 23 24 25 26 27 28 29 30 31 32 33 34 35 36 37 38 39 40 41 42 43 44 45 46 47 48 49 50

000
ASUS45 KTFX 271404
RWRMT
MONTANA HOURLY WEATHER ROUNDUP
NATIONAL WEATHER SERVICE GREAT FALLS MT
704 AM MST FRI FEB 27 2015

NOTE: "FAIR" INDICATES FEW OR NO CLOUDS BELOW 12000 FEET WITH NO
SIGNIFICANT WEATHER AND/OR OBSTRUCTIONS TO VISIBILITY.

* THESE STATIONS ARE NOT UNDER NWS QUALITY CONTROL. THEY DO NOT
   REPORT WEATHER SUCH AS PRECIPITATION OR FOG.

MTZ001>007-043-271500-
WEST OF THE DIVIDE
CITY           SKY/WX    TMP DP  RH WIND       PRES   REMARKS
KALISPELL      CLOUDY    25  18  75 NE13      29.89S WCI  13
MISSOULA       CLOUDY    25  12  58 E17       29.89F WCI  12
BUTTE          PTCLDY     5   1  83 S7        29.83S WCI  -7
MULLAN PASS    PTCLDY    18  14  84 SE9       29.71F WCI   7
* ANACONDA     PTCLDY     7   1  76 SW3        N/A
* ESSEX        N/A       14  10  84 VRB1G6     N/A
* LINCOLN      N/A       -1  -6  79 N/A        N/A
* LOOKOUT PASS N/A       21  18  88 SE1        N/A
* POLSON       N/A       23  20  88 N/A        N/A
* RONAN APT    PTCLDY    27  23  85 N/A        N/A
* SEELEY LAKE  N/A       10   6  84 N2         N/A
* THOMP F APT  PTCLDY    19  12  74 N/A        N/A
* YAAK HILL    N/A       28  23  81 W1         N/A
$$

MTZ008-052>055-271500-
SOUTHWEST MONTANA
CITY           SKY/WX    TMP DP  RH WIND       PRES   REMARKS
BOZEMAN        CLEAR      3   0  87 CALM      29.91F
DILLON         CLOUDY    12   9  88 CALM      29.83F
* W YELLOWSTON MOCLDY     2  -4  76 N/A        N/A
* THREE FORKS  CLEAR      5   0  80 N/A        N/A
* BOULDER HILL N/A        6   1  80 S8         N/A   WCI  -7
* MONIDA PASS  N/A       11   9  92 NW4        N/A
* RAYNOLDS PAS N/A        7  -6  55 S7         N/A   WCI  -5
* WHITEHALL    N/A        6   2  83 NE1        N/A
* WISE RIVER   N/A        9   4  80 S2         N/A
$$

MTZ009>010-012-014-046-048-049-054-271500-
EAST SLOPES AND CENTRAL MONTANA
CITY           SKY/WX    TMP DP  RH WIND       PRES   REMARKS
CUT BANK       MOCLDY     5   1  83 NW8       29.95R WCI  -8
GREAT FALLS    MOCLDY     3   1  91 CALM      29.91R
HELENA         CLEAR      9   3  76 N/A       29.95S
* DEARBORN     N/A       13   7  77 S4         N/A
* EAST GLACIER N/A       13   6  73 N12G21     N/A   WCI  -1
* MONARCH      N/A        4  -3  72 SE6        N/A   WCI  -7
* PENDROY      N/A        7   5  91 N14G20     N/A   WCI -10
* ROGERS PASS  N/A        9   4  80 SE2G9      N/A
* SWEET GRASS  N/A        4   0  83 W8         N/A   WCI  -9
$$

MTZ011-013-016-021-035-040-045-047-050-051-271500-
NORTH CENTRAL MONTANA
CITY           SKY/WX    TMP DP  RH WIND       PRES   REMARKS
HAVRE          MOCLDY     1  -4  79 CALM      30.04F
LEWISTOWN      MOCLDY    -2  -9  72 SE5       29.88F WCI -13
* N BAR RANCH  CLEAR      7  -2  66 CALM      29.87F
* CHESTER      N/A        4  -2  76 E1         N/A
* DENTON       N/A        3  -4  72 S4         N/A
* GEYSER       N/A        1  -4  79 S6         N/A   WCI -11
* JUDITH GAP   N/A       -5  -8  87 S7         N/A   WCI -19
* LOMA         N/A        4  -1  79 E8         N/A   WCI  -9
$$

MTZ017>020-022>027-061-062-271500-
NORTHEAST MONTANA
CITY           SKY/WX    TMP DP  RH WIND       PRES   REMARKS
GLASGOW        CLEAR      0  -8  68 SE13      30.11F WCI -18
GLENDIVE       CLEAR     -2  -8  75 CALM      30.18F
JORDAN         CLEAR      0  -8  68 E7        30.08F WCI -13
SIDNEY         CLEAR     -8 -24  44 CALM      30.27F
WOLF POINT     CLEAR     -2  -9  72 E6        30.20F WCI -14
* BEAVER HILL  N/A        1  -7  69 SE18       N/A   WCI -20
* CIRCLE       N/A       -1  -6  79 SE3        N/A
* LINDSAY DVD  N/A       -7 -11  82 E4         N/A
* NAVAJO       N/A       -4  -9  79 S7         N/A   WCI -18
* SACO         N/A       -1  -7  75 E12        N/A   WCI -19
$$

MTZ028>042-056>058-271500-
SOUTHCENTRAL AND SOUTHEAST MONTANA
CITY           SKY/WX    TMP DP  RH WIND       PRES   REMARKS
BAKER          CLEAR     -4  -9  79 SE7       30.16F WCI -18
BILLINGS       FAIR       1  -4  79 SW7       29.99F WCI -12
LIVINGSTON     CLEAR      3  -2  79 NW7       29.89F WCI  -9
MILES CITY     CLEAR      1  -6  72 S10       30.12F WCI -15
* LAUREL APT   CLEAR     -2  -9  72 N/A        N/A
* ROUNDUP APT  CLEAR      0  -9  65 S8         N/A   WCI -14
* ALZADA       N/A      -12 -17  78 E2         N/A
* HYSHAM       N/A        3  -6  66 NW4        N/A
* LAME DEER    N/A       -1  -5  83 S10        N/A   WCI -17
* REED POINT   N/A       -4  -7  87 SE2        N/A
* ROSCOE HILL  N/A       -1  -7  75 SW3        N/A
$$

REGIONAL REPORTS...DAKOTAS
CITY           SKY/WX    TMP DP  RH WIND       PRES   REMARKS
WILLISTON      PTCLDY   -13 -17  82 CALM      30.27F
DICKINSON      PTCLDY    -4 -11  71 S9        30.22F WCI -20
BEACH          CLEAR      0  -8  68 S14       30.19F WCI -19
CROSBY         CLEAR    -11 -15  82 S12       30.26F WCI -31
WATFORD CITY   CLEAR    -11 -17  74 CALM      30.25F
BISMARCK       PTCLDY   -13 -18  78 E6        30.41F WCI -27
GRAND FORKS    CLEAR    -15 -20  77 SW6       30.44S WCI -30
FARGO          CLEAR     -9 -15  74 SW8       30.49S WCI -25
BUFFALO SD     PTCLDY    -4  -9  79 SE7       30.10F WCI -18
RAPID CITY     CLEAR     -2  -8  75 SE10      30.22F WCI -18
$$

REGIONAL REPORTS...WYOMING/IDAHO/WASHINGTON
CITY           SKY/WX    TMP DP  RH WIND       PRES   REMARKS
GILLETTE       CLEAR      1  -4  79 S22       30.00F WCI -22
SHERIDAN       MOCLDY   -11 -17  74 CALM      29.98F
CODY           PTCLDY     0  -6  75 CALM      29.89F
YELLOWSTONE LA PTCLDY    -2  -8  75 CALM      29.78F
SALMON         CLOUDY    28  19  69 CALM      29.82S
MULLAN PASS    PTCLDY    18  14  84 SE9       29.71S WCI   7
SAND POINT     PTCLDY    32  27  82 NE8       29.85F WCI  25
SPOKANE        PTCLDY    28  27  96 NE3       29.81F
$$

REGIONAL REPORTS...ALBERTA
CITY           SKY/WX    TMP DP  RH WIND       PRES   REMARKS
EDMONTON       LGT SNOW   9   5  84 NW5       30.14S VSB 2 1/2

$$




USA.gov is the U.S. government's official web portal to all federal, state and local government web resources and services.